Time,TemperatureF,DewpointF,PressureIn,WindDirection,WindDirectionDegrees,WindSpeedMPH,WindSpeedGustMPH,Humidity,HourlyPrecipIn,Conditions,Clouds,dailyrainin,SoftwareType,DateUTC
2013-12-12 00:01:00,30.0,-3.3,29.99,NE,49,3.6,3.6,23,0.00,,CLR,0.00,VWS V14.01,2013-12-12 05:01:00,
2013-12-12 00:02:00,29.8,-3.4,29.99,East,98,4.0,4.0,23,0.00,,CLR,0.00,VWS V14.01,2013-12-12 05:02:00,
2013-12-12 00:03:00,29.8,-3.4,29.99,ENE,62,4.9,4.9,23,0.00,,CLR,0.00,VWS V14.01,2013-12-12 05:03:00,
2013-12-12 00:06:00,30.2,-3.1,29.99,North,357,0.0,2.7,23,0.00,,CLR,0.00,VWS V14.01,2013-12-12 05:06:00,
2013-12-12 00:11:00,30.2,-3.1,29.99,North,353,3.6,4.9,23,0.00,,CLR,0.00,VWS V14.01,2013-12-12 05:11:00,
2013-12-12 00:16:00,29.7,-3.6,29.99,SSE,148,6.7,6.7,23,0.00,,CLR,0.00,VWS V14.01,2013-12-12 05:16:00,
2013-12-12 00:21:00,30.0,-3.3,29.99,ENE,68,0.0,4.9,23,0.00,,CLR,0.00,VWS V14.01,2013-12-12 05:21:00,
2013-12-12 00:26:00,30.0,-3.3,29.99,ENE,59,0.0,2.2,23,0.00,,CLR,0.00,VWS V14.01,2013-12-12 05:26:00,
2013-12-12 00:31:00,29.8,-3.4,29.99,NE,45,2.7,2.7,23,0.00,,CLR,0.00,VWS V14.01,2013-12-12 05:31:00,
2013-12-12 00:36:00,30.4,-3.0,29.99,ENE,76,3.6,3.6,23,0.00,,CLR,0.00,VWS V14.01,2013-12-12 05:36:00,
2013-12-12 00:41:00,29.7,-3.6,29.99,East,86,3.1,3.1,23,0.00,,CLR,0.00,VWS V14.01,2013-12-12 05:41:00,
2013-12-12 00:46:00,30.0,-3.3,29.99,NE,45,3.1,5.8,23,0.00,,CLR,0.00,VWS V14.01,2013-12-12 05:46:00,
2013-12-12 00:51:00,30.2,-3.1,29.96,NE,51,2.7,2.7,23,0.00,,CLR,0.00,VWS V14.01,2013-12-12 05:51:00,
2013-12-12 00:56:00,31.1,-2.4,29.96,NNE,28,5.4,5.4,23,0.00,,CLR,0.00,VWS V14.01,2013-12-12 05:56:00,
2013-12-12 01:02:00,31.1,-2.4,29.96,ENE,59,2.7,6.3,23,0.00,,CLR,0.00,VWS V14.01,2013-12-12 06:02:00,
2013-12-12 01:07:00,30.7,-2.7,29.99,NE,54,3.6,3.6,23,0.00,,CLR,0.00,VWS V14.01,2013-12-12 06:07:00,
2013-12-12 01:12:00,30.4,-3.0,29.99,ENE,68,3.6,3.6,23,0.00,,CLR,0.00,VWS V14.01,2013-12-12 06:12:00,
2013-12-12 01:17:00,30.0,-3.3,29.99,ENE,68,2.7,3.1,23,0.00,,CLR,0.00,VWS V14.01,2013-12-12 06:17:00,
2013-12-12 01:22:00,30.4,-3.0,29.99,SSE,160,4.9,4.9,23,0.00,,CLR,0.00,VWS V14.01,2013-12-12 06:22:00,
2013-12-12 01:27:00,30.0,-3.3,29.99,NE,51,2.2,2.2,23,0.00,,CLR,0.00,VWS V14.01,2013-12-12 06:27:00,
2013-12-12 01:32:00,29.7,-3.6,29.99,NE,37,2.7,4.0,23,0.00,,CLR,0.00,VWS V14.01,2013-12-12 06:32:00,
2013-12-12 01:37:00,28.9,-4.2,29.99,NE,56,0.0,2.2,23,0.00,,CLR,0.00,VWS V14.01,2013-12-12 06:37:00,
2013-12-12 01:42:00,29.7,-3.6,29.99,NE,42,3.1,3.1,23,0.00,,CLR,0.00,VWS V14.01,2013-12-12 06:42:00,
2013-12-12 01:47:00,29.5,-3.7,29.99,ESE,104,2.7,6.3,23,0.00,,CLR,0.00,VWS V14.01,2013-12-12 06:47:00,
2013-12-12 01:52:00,29.7,-3.6,29.99,ENE,63,4.0,4.0,23,0.00,,CLR,0.00,VWS V14.01,2013-12-12 06:52:00,
2013-12-12 01:57:00,29.5,-3.7,29.99,North,5,2.2,3.1,23,0.00,,CLR,0.00,VWS V14.01,2013-12-12 06:57:00,
2013-12-12 02:02:00,28.9,-4.2,29.99,SSE,147,2.7,2.7,23,0.00,,CLR,0.00,VWS V14.01,2013-12-12 07:02:00,
2013-12-12 02:07:00,28.8,-4.3,29.99,NE,41,2.7,3.6,23,0.00,,CLR,0.00,VWS V14.01,2013-12-12 07:07:00,
2013-12-12 02:12:00,28.9,-4.2,29.99,NE,39,2.7,2.7,23,0.00,,CLR,0.00,VWS V14.01,2013-12-12 07:12:00,
2013-12-12 02:17:00,28.8,-4.3,29.99,ENE,72,4.0,4.0,23,0.00,,CLR,0.00,VWS V14.01,2013-12-12 07:17:00,
2013-12-12 02:22:00,28.9,-4.2,29.99,NW,322,4.0,4.0,23,0.00,,CLR,0.00,VWS V14.01,2013-12-12 07:22:00,
2013-12-12 02:28:00,28.9,-4.2,29.99,North,353,3.6,4.0,23,0.00,,CLR,0.00,VWS V14.01,2013-12-12 07:28:00,
2013-12-12 02:33:00,28.6,-4.5,29.99,NE,35,3.1,3.6,23,0.00,,CLR,0.00,VWS V14.01,2013-12-12 07:33:00,
2013-12-12 02:38:00,27.9,-5.1,29.99,East,98,2.7,3.6,23,0.00,,CLR,0.00,VWS V14.01,2013-12-12 07:38:00,
2013-12-12 02:43:00,27.7,-5.3,29.99,ENE,58,2.2,2.2,23,0.00,,CLR,0.00,VWS V14.01,2013-12-12 07:43:00,
2013-12-12 02:48:00,28.0,-5.0,29.99,NNE,14,4.0,4.0,23,0.00,,CLR,0.00,VWS V14.01,2013-12-12 07:48:00,
2013-12-12 02:53:00,28.6,-4.5,29.99,NE,36,2.7,2.7,23,0.00,,CLR,0.00,VWS V14.01,2013-12-12 07:53:00,
2013-12-12 02:58:00,28.2,-4.8,29.99,NE,52,2.7,2.7,23,0.00,,CLR,0.00,VWS V14.01,2013-12-12 07:58:00,
2013-12-12 03:03:00,28.0,-5.0,29.99,NE,45,4.5,4.5,23,0.00,,CLR,0.00,VWS V14.01,2013-12-12 08:03:00,
2013-12-12 03:08:00,28.0,-5.0,29.99,North,357,3.6,3.6,23,0.00,,CLR,0.00,VWS V14.01,2013-12-12 08:08:00,
2013-12-12 03:13:00,28.0,-5.0,29.99,NNE,20,10.5,10.5,23,0.00,,CLR,0.00,VWS V14.01,2013-12-12 08:13:00,
2013-12-12 03:18:00,27.9,-5.1,29.99,North,3,2.7,3.6,23,0.00,,CLR,0.00,VWS V14.01,2013-12-12 08:18:00,
2013-12-12 03:23:00,28.0,-5.0,29.99,NNE,29,5.8,5.8,23,0.00,,CLR,0.00,VWS V14.01,2013-12-12 08:23:00,
2013-12-12 03:29:00,27.9,-5.1,29.99,North,4,3.6,4.0,23,0.00,,CLR,0.00,VWS V14.01,2013-12-12 08:29:00,
2013-12-12 03:34:00,27.5,-5.4,29.99,North,10,4.0,4.0,23,0.00,,CLR,0.00,VWS V14.01,2013-12-12 08:34:00,
2013-12-12 03:39:00,27.1,-5.7,29.96,ENE,68,2.7,3.6,23,0.00,,CLR,0.00,VWS V14.01,2013-12-12 08:39:00,
2013-12-12 03:44:00,27.3,-5.6,29.96,NNE,27,3.1,4.9,23,0.00,,CLR,0.00,VWS V14.01,2013-12-12 08:44:00,
2013-12-12 03:49:00,27.1,-5.7,29.96,East,101,3.1,4.5,23,0.00,,CLR,0.00,VWS V14.01,2013-12-12 08:49:00,
2013-12-12 03:54:00,26.8,-6.0,29.99,North,0,0.0,4.0,23,0.00,,CLR,0.00,VWS V14.01,2013-12-12 08:54:00,
2013-12-12 03:59:00,27.7,-5.3,29.99,NNE,32,5.8,5.8,23,0.00,,CLR,0.00,VWS V14.01,2013-12-12 08:59:00,
2013-12-12 04:04:00,27.3,-5.6,29.99,North,353,4.0,4.0,23,0.00,,CLR,0.00,VWS V14.01,2013-12-12 09:04:00,
2013-12-12 04:09:00,26.4,-5.5,29.99,ENE,73,0.0,0.0,24,0.00,,CLR,0.00,VWS V14.01,2013-12-12 09:09:00,
2013-12-12 04:14:00,26.4,-5.5,29.99,ESE,105,3.1,3.1,24,0.00,,CLR,0.00,VWS V14.01,2013-12-12 09:14:00,
2013-12-12 04:19:00,26.6,-5.3,29.99,NNE,28,2.2,3.6,24,0.00,,CLR,0.00,VWS V14.01,2013-12-12 09:19:00,
2013-12-12 04:24:00,26.8,-6.0,29.96,North,9,2.7,4.0,23,0.00,,CLR,0.00,VWS V14.01,2013-12-12 09:24:00,
2013-12-12 04:29:00,25.7,-6.1,29.96,NNE,22,2.2,4.0,24,0.00,,CLR,0.00,VWS V14.01,2013-12-12 09:29:00,
2013-12-12 04:34:00,26.2,-5.6,29.96,NNE,33,2.2,4.0,24,0.00,,CLR,0.00,VWS V14.01,2013-12-12 09:34:00,
2013-12-12 04:39:00,25.9,-5.9,29.96,North,8,2.7,4.0,24,0.00,,CLR,0.00,VWS V14.01,2013-12-12 09:39:00,
2013-12-12 04:45:00,25.9,-5.9,29.96,NNE,33,3.1,3.1,24,0.00,,CLR,0.00,VWS V14.01,2013-12-12 09:45:00,
2013-12-12 04:50:00,25.9,-5.9,29.96,NNE,29,3.1,4.0,24,0.00,,CLR,0.00,VWS V14.01,2013-12-12 09:50:00,
2013-12-12 04:55:00,25.9,-5.9,29.96,ENE,61,4.0,6.7,24,0.00,,CLR,0.00,VWS V14.01,2013-12-12 09:55:00,
2013-12-12 05:00:00,25.9,-5.9,29.96,East,97,3.6,3.6,24,0.00,,CLR,0.00,VWS V14.01,2013-12-12 10:00:00,
2013-12-12 05:05:00,26.2,-5.6,29.96,ENE,68,4.0,5.8,24,0.00,,CLR,0.00,VWS V14.01,2013-12-12 10:05:00,
2013-12-12 05:10:00,26.1,-5.8,29.96,ENE,61,4.0,4.9,24,0.00,,CLR,0.00,VWS V14.01,2013-12-12 10:10:00,
2013-12-12 05:15:00,25.5,-6.2,29.96,ENE,60,4.0,4.0,24,0.00,,CLR,0.00,VWS V14.01,2013-12-12 10:15:00,
2013-12-12 05:20:00,25.7,-6.1,29.96,East,87,3.1,3.1,24,0.00,,CLR,0.00,VWS V14.01,2013-12-12 10:20:00,
2013-12-12 05:25:00,25.2,-6.6,29.96,NNE,24,2.2,2.2,24,0.00,,CLR,0.00,VWS V14.01,2013-12-12 10:25:00,
2013-12-12 05:30:00,24.8,-6.9,29.96,NNE,23,0.0,2.2,24,0.00,,CLR,0.00,VWS V14.01,2013-12-12 10:30:00,
2013-12-12 05:35:00,26.2,-5.6,29.96,WNW,295,3.1,5.4,24,0.00,,CLR,0.00,VWS V14.01,2013-12-12 10:35:00,
2013-12-12 05:41:00,25.3,-6.4,29.99,North,6,0.0,0.0,24,0.00,,CLR,0.00,VWS V14.01,2013-12-12 10:41:00,
2013-12-12 05:46:00,25.0,-6.7,29.99,NW,326,2.7,6.3,24,0.00,,CLR,0.00,VWS V14.01,2013-12-12 10:46:00,
2013-12-12 05:51:00,25.0,-6.7,29.99,ESE,105,0.0,0.0,24,0.00,,CLR,0.00,VWS V14.01,2013-12-12 10:51:00,
2013-12-12 05:56:00,24.6,-7.0,29.99,ESE,103,3.1,3.1,24,0.00,,CLR,0.00,VWS V14.01,2013-12-12 10:56:00,
2013-12-12 06:01:00,25.3,-6.4,29.99,NNE,29,6.3,6.3,24,0.00,,CLR,0.00,VWS V14.01,2013-12-12 11:01:00,
2013-12-12 06:06:00,24.6,-7.0,29.99,ENE,66,3.6,3.6,24,0.00,,CLR,0.00,VWS V14.01,2013-12-12 11:06:00,
2013-12-12 06:11:00,25.0,-6.7,29.99,ENE,69,4.9,4.9,24,0.00,,CLR,0.00,VWS V14.01,2013-12-12 11:11:00,
2013-12-12 06:16:00,25.7,-6.1,29.99,NNE,18,2.7,2.7,24,0.00,,CLR,0.00,VWS V14.01,2013-12-12 11:16:00,
2013-12-12 06:21:00,25.0,-6.7,29.99,NNE,18,2.7,2.7,24,0.00,,CLR,0.00,VWS V14.01,2013-12-12 11:21:00,
2013-12-12 06:26:00,25.0,-6.7,29.99,NNE,27,3.1,3.1,24,0.00,,CLR,0.00,VWS V14.01,2013-12-12 11:26:00,
2013-12-12 06:31:00,25.0,-6.7,29.99,NNE,27,3.1,3.1,24,0.00,,CLR,0.00,VWS V14.01,2013-12-12 11:31:00,
2013-12-12 06:38:00,25.5,-6.2,29.99,WNW,285,2.7,2.7,24,0.00,,CLR,0.00,VWS V14.01,2013-12-12 11:38:00,
2013-12-12 06:43:00,25.0,-6.7,29.99,WNW,285,2.7,2.7,24,0.00,,CLR,0.00,VWS V14.01,2013-12-12 11:43:00,
2013-12-12 06:48:00,25.2,-6.6,29.99,ENE,76,4.0,4.0,24,0.00,,CLR,0.00,VWS V14.01,2013-12-12 11:48:00,
2013-12-12 06:53:00,24.3,-7.3,29.99,North,0,2.2,2.2,24,0.00,,CLR,0.00,VWS V14.01,2013-12-12 11:53:00,
2013-12-12 06:58:00,24.1,-7.5,29.99,NE,54,0.0,0.0,24,0.00,,CLR,0.00,VWS V14.01,2013-12-12 11:58:00,
2013-12-12 07:03:00,24.1,-7.5,29.99,ENE,70,0.0,4.0,24,0.00,,CLR,0.00,VWS V14.01,2013-12-12 12:03:00,
2013-12-12 07:08:00,23.2,-8.2,29.99,South,186,3.1,3.1,24,0.00,,CLR,0.00,VWS V14.01,2013-12-12 12:08:00,
2013-12-12 07:13:00,24.4,-7.2,29.99,NNW,334,4.9,4.9,24,0.00,,CLR,0.00,VWS V14.01,2013-12-12 12:13:00,
2013-12-12 07:19:00,24.3,-7.3,29.99,NNE,25,2.7,3.6,24,0.00,,CLR,0.00,VWS V14.01,2013-12-12 12:19:00,
2013-12-12 07:24:00,23.9,-7.6,30.02,NNW,340,2.2,3.1,24,0.00,,CLR,0.00,VWS V14.01,2013-12-12 12:24:00,
2013-12-12 07:29:00,23.9,-7.6,30.02,East,92,3.6,3.6,24,0.00,,CLR,0.00,VWS V14.01,2013-12-12 12:29:00,
2013-12-12 07:34:00,23.4,-8.1,30.02,NNW,331,2.7,2.7,24,0.00,,CLR,0.00,VWS V14.01,2013-12-12 12:34:00,
2013-12-12 07:39:00,23.4,-8.1,30.02,East,87,2.7,2.7,24,0.00,,CLR,0.00,VWS V14.01,2013-12-12 12:39:00,
2013-12-12 07:44:00,24.4,-7.2,30.02,ENE,69,4.0,4.0,24,0.00,,CLR,0.00,VWS V14.01,2013-12-12 12:44:00,
2013-12-12 07:49:00,24.4,-7.2,30.02,ENE,59,4.9,4.9,24,0.00,,CLR,0.00,VWS V14.01,2013-12-12 12:49:00,
2013-12-12 07:54:00,24.3,-7.3,30.02,ENE,75,2.7,3.6,24,0.00,,CLR,0.00,VWS V14.01,2013-12-12 12:54:00,
2013-12-12 08:00:00,23.4,-8.1,30.02,NNE,22,0.0,0.0,24,0.00,,CLR,0.00,VWS V14.01,2013-12-12 13:00:00,
2013-12-12 08:05:00,23.9,-7.6,30.02,NNE,28,0.0,3.1,24,0.00,,CLR,0.00,VWS V14.01,2013-12-12 13:05:00,
2013-12-12 08:10:00,23.5,-7.9,30.02,NNW,330,3.1,4.0,24,0.00,,CLR,0.00,VWS V14.01,2013-12-12 13:10:00,
2013-12-12 08:15:00,23.5,-7.9,30.02,ESE,122,0.0,2.2,24,0.00,,CLR,0.00,VWS V14.01,2013-12-12 13:15:00,
2013-12-12 08:20:00,24.1,-7.5,30.02,NE,36,4.0,4.0,24,0.00,,CLR,0.00,VWS V14.01,2013-12-12 13:20:00,
2013-12-12 08:25:00,23.9,-7.6,30.02,North,353,0.0,0.0,24,0.00,,CLR,0.00,VWS V14.01,2013-12-12 13:25:00,
2013-12-12 08:30:00,24.3,-7.3,30.02,ESE,109,2.7,4.0,24,0.00,,CLR,0.00,VWS V14.01,2013-12-12 13:30:00,
2013-12-12 08:35:00,24.4,-7.2,30.02,NW,326,0.0,0.0,24,0.00,,CLR,0.00,VWS V14.01,2013-12-12 13:35:00,
2013-12-12 08:40:00,25.2,-6.6,30.02,NNE,26,2.2,4.0,24,0.00,,CLR,0.00,VWS V14.01,2013-12-12 13:40:00,
2013-12-12 08:45:00,25.3,-6.4,30.02,WSW,243,3.1,3.1,24,0.00,,CLR,0.00,VWS V14.01,2013-12-12 13:45:00,
2013-12-12 08:50:00,25.5,-6.2,30.02,WNW,286,0.0,0.0,24,0.00,,CLR,0.00,VWS V14.01,2013-12-12 13:50:00,
2013-12-12 08:55:00,26.2,-5.6,30.02,NW,307,3.1,3.6,24,0.00,,CLR,0.00,VWS V14.01,2013-12-12 13:55:00,
2013-12-12 09:00:00,26.4,-5.5,30.02,ENE,65,0.0,0.0,24,0.00,,CLR,0.00,VWS V14.01,2013-12-12 14:00:00,
2013-12-12 09:06:00,27.0,-5.9,30.02,West,279,0.0,3.1,23,0.00,,CLR,0.00,VWS V14.01,2013-12-12 14:06:00,
2013-12-12 09:11:00,27.7,-5.3,30.02,NNW,328,2.2,2.7,23,0.00,,CLR,0.00,VWS V14.01,2013-12-12 14:11:00,
2013-12-12 09:16:00,28.4,-4.7,30.02,West,267,0.0,0.0,23,0.00,,CLR,0.00,VWS V14.01,2013-12-12 14:16:00,
2013-12-12 09:21:00,28.8,-4.3,30.02,ENE,76,3.1,3.6,23,0.00,,CLR,0.00,VWS V14.01,2013-12-12 14:21:00,
2013-12-12 09:26:00,29.1,-4.1,30.05,NNW,344,3.1,6.3,23,0.00,,CLR,0.00,VWS V14.01,2013-12-12 14:26:00,
2013-12-12 09:31:00,29.5,-3.7,30.05,ENE,57,0.0,0.0,23,0.00,,CLR,0.00,VWS V14.01,2013-12-12 14:31:00,
2013-12-12 09:36:00,29.7,-3.6,30.05,WNW,289,3.6,3.6,23,0.00,,CLR,0.00,VWS V14.01,2013-12-12 14:36:00,
2013-12-12 09:41:00,30.2,-3.1,30.05,NNE,12,0.0,2.7,23,0.00,,CLR,0.00,VWS V14.01,2013-12-12 14:41:00,
2013-12-12 09:46:00,30.7,-2.7,30.05,NE,55,2.7,3.1,23,0.00,,CLR,0.00,VWS V14.01,2013-12-12 14:46:00,
2013-12-12 09:51:00,32.0,-1.6,30.05,North,0,3.1,3.6,23,0.00,,CLR,0.00,VWS V14.01,2013-12-12 14:51:00,
2013-12-12 09:57:00,32.4,-1.3,30.05,WNW,291,2.7,2.7,23,0.00,,CLR,0.00,VWS V14.01,2013-12-12 14:57:00,
2013-12-12 10:02:00,32.5,-1.1,30.05,NNW,337,0.0,0.0,23,0.00,,CLR,0.00,VWS V14.01,2013-12-12 15:02:00,
2013-12-12 10:07:00,33.3,-0.5,30.05,WNW,285,3.1,3.1,23,0.00,,CLR,0.00,VWS V14.01,2013-12-12 15:07:00,
2013-12-12 10:12:00,33.3,-0.5,30.05,WNW,293,3.1,3.1,23,0.00,,CLR,0.00,VWS V14.01,2013-12-12 15:12:00,
2013-12-12 10:17:00,33.8,-1.0,30.05,WSW,258,3.6,4.5,22,0.00,,CLR,0.00,VWS V14.01,2013-12-12 15:17:00,
2013-12-12 10:22:00,34.7,-0.2,30.05,WSW,251,4.0,4.0,22,0.00,,CLR,0.00,VWS V14.01,2013-12-12 15:22:00,
2013-12-12 10:27:00,35.4,0.4,30.05,WSW,251,4.0,4.0,22,0.00,,CLR,0.00,VWS V14.01,2013-12-12 15:27:00,
2013-12-12 10:32:00,36.5,1.3,30.05,WSW,256,2.7,2.7,22,0.00,,CLR,0.00,VWS V14.01,2013-12-12 15:32:00,
2013-12-12 10:37:00,36.9,1.6,30.05,WNW,285,2.7,2.7,22,0.00,,CLR,0.00,VWS V14.01,2013-12-12 15:37:00,
2013-12-12 10:42:00,38.1,1.6,30.05,WSW,254,3.1,3.1,21,0.00,,CLR,0.00,VWS V14.01,2013-12-12 15:42:00,
2013-12-12 10:47:00,38.8,2.3,30.05,NW,310,2.2,2.2,21,0.00,,CLR,0.00,VWS V14.01,2013-12-12 15:47:00,
2013-12-12 10:53:00,39.7,3.0,30.05,NW,310,2.2,2.2,21,0.00,,CLR,0.00,VWS V14.01,2013-12-12 15:53:00,
2013-12-12 10:58:00,39.4,2.7,30.05,SW,234,2.2,3.1,21,0.00,,CLR,0.00,VWS V14.01,2013-12-12 15:58:00,
2013-12-12 11:03:00,39.2,2.6,30.05,West,278,0.0,0.0,21,0.00,,CLR,0.00,VWS V14.01,2013-12-12 16:03:00,
2013-12-12 11:08:00,39.7,3.0,30.05,WNW,302,2.7,2.7,21,0.00,,CLR,0.00,VWS V14.01,2013-12-12 16:08:00,
2013-12-12 11:13:00,40.3,3.5,30.05,SW,231,4.0,4.0,21,0.00,,CLR,0.00,VWS V14.01,2013-12-12 16:13:00,
2013-12-12 11:21:00,41.5,4.5,30.05,East,99,3.6,3.6,21,0.00,,CLR,0.00,VWS V14.01,2013-12-12 16:21:00,
2013-12-12 11:26:00,42.3,5.1,30.05,WSW,243,2.7,3.1,21,0.00,,CLR,0.00,VWS V14.01,2013-12-12 16:26:00,
2013-12-12 11:31:00,42.1,5.0,30.05,SSE,165,3.1,4.0,21,0.00,,CLR,0.00,VWS V14.01,2013-12-12 16:31:00,
2013-12-12 11:37:00,42.3,5.1,30.05,SW,221,3.1,3.1,21,0.00,,CLR,0.00,VWS V14.01,2013-12-12 16:37:00,
2013-12-12 11:43:00,42.4,5.3,30.05,ESE,114,2.7,5.4,21,0.00,,CLR,0.00,VWS V14.01,2013-12-12 16:43:00,
2013-12-12 11:48:00,43.3,5.0,30.05,South,180,4.0,4.0,20,0.00,,CLR,0.00,VWS V14.01,2013-12-12 16:48:00,
2013-12-12 11:53:00,43.7,5.3,30.05,South,180,4.0,4.0,20,0.00,,CLR,0.00,VWS V14.01,2013-12-12 16:53:00,
2013-12-12 11:58:00,44.6,6.0,30.05,SE,145,0.0,2.7,20,0.00,,CLR,0.00,VWS V14.01,2013-12-12 16:58:00,
2013-12-12 12:03:00,44.6,6.0,30.05,SW,216,0.0,0.0,20,0.00,,CLR,0.00,VWS V14.01,2013-12-12 17:03:00,
2013-12-12 12:08:00,46.9,6.8,30.05,ESE,106,2.7,4.0,19,0.00,,CLR,0.00,VWS V14.01,2013-12-12 17:08:00,
2013-12-12 12:13:00,46.4,6.4,30.05,ESE,115,0.0,3.6,19,0.00,,CLR,0.00,VWS V14.01,2013-12-12 17:13:00,
2013-12-12 12:18:00,45.5,6.8,30.05,ENE,67,5.4,6.3,20,0.16,,CLR,0.16,VWS V14.01,2013-12-12 17:18:00,
2013-12-12 12:23:00,46.2,7.4,30.05,ESE,110,2.7,3.6,20,0.16,,CLR,0.16,VWS V14.01,2013-12-12 17:23:00,
2013-12-12 12:29:00,47.7,7.4,30.05,ESE,121,4.0,4.0,19,0.16,,CLR,0.16,VWS V14.01,2013-12-12 17:29:00,
2013-12-12 12:34:00,48.2,7.9,30.05,SE,139,3.1,3.1,19,0.16,,CLR,0.16,VWS V14.01,2013-12-12 17:34:00,
2013-12-12 12:39:00,48.2,7.9,30.05,South,180,3.1,4.0,19,0.16,,CLR,0.16,VWS V14.01,2013-12-12 17:39:00,
2013-12-12 12:44:00,47.1,7.0,30.05,WSW,258,4.0,4.0,19,0.16,,CLR,0.16,VWS V14.01,2013-12-12 17:44:00,
2013-12-12 12:49:00,47.5,7.3,30.05,NNW,348,2.2,2.2,19,0.16,,CLR,0.16,VWS V14.01,2013-12-12 17:49:00,
2013-12-12 12:54:00,48.7,8.3,30.05,NNW,344,3.1,3.1,19,0.16,,CLR,0.16,VWS V14.01,2013-12-12 17:54:00,
2013-12-12 12:59:00,50.5,9.8,30.05,SSW,205,3.1,5.8,19,0.16,,CLR,0.16,VWS V14.01,2013-12-12 17:59:00,
2013-12-12 13:04:00,51.4,10.6,30.05,NE,42,3.1,3.6,19,0.16,,CLR,0.16,VWS V14.01,2013-12-12 18:04:00,
2013-12-12 13:09:00,52.2,10.0,30.02,South,177,4.0,4.9,18,0.16,,CLR,0.16,VWS V14.01,2013-12-12 18:09:00,
2013-12-12 13:15:00,52.3,10.1,30.02,West,268,5.4,5.4,18,0.16,,CLR,0.16,VWS V14.01,2013-12-12 18:15:00,
2013-12-12 13:20:00,52.0,9.8,30.02,NW,312,2.2,5.8,18,0.00,,CLR,0.16,VWS V14.01,2013-12-12 18:20:00,
2013-12-12 13:25:00,52.3,10.1,30.02,North,353,2.7,4.0,18,0.00,,CLR,0.16,VWS V14.01,2013-12-12 18:25:00,
2013-12-12 13:30:00,52.2,10.0,30.02,NW,318,3.1,3.1,18,0.00,,CLR,0.16,VWS V14.01,2013-12-12 18:30:00,
2013-12-12 13:35:00,52.2,10.0,30.02,WSW,240,4.0,5.4,18,0.00,,CLR,0.16,VWS V14.01,2013-12-12 18:35:00,
2013-12-12 13:40:00,52.3,10.1,30.02,WNW,296,3.1,4.0,18,0.00,,CLR,0.16,VWS V14.01,2013-12-12 18:40:00,
2013-12-12 13:45:00,54.1,11.6,30.02,North,2,0.0,2.7,18,0.00,,CLR,0.16,VWS V14.01,2013-12-12 18:45:00,
2013-12-12 13:50:00,53.6,11.1,30.02,NW,326,3.6,5.4,18,0.00,,CLR,0.16,VWS V14.01,2013-12-12 18:50:00,
2013-12-12 13:56:00,53.6,11.1,30.02,ENE,72,2.7,2.7,18,0.00,,CLR,0.16,VWS V14.01,2013-12-12 18:56:00,
2013-12-12 14:01:00,54.1,11.6,30.02,WNW,302,0.0,3.1,18,0.00,,CLR,0.16,VWS V14.01,2013-12-12 19:01:00,
2013-12-12 14:06:00,55.0,12.3,30.02,NW,320,4.9,4.9,18,0.00,,CLR,0.16,VWS V14.01,2013-12-12 19:06:00,
2013-12-12 14:11:00,54.3,11.7,30.02,SE,145,0.0,3.1,18,0.00,,CLR,0.16,VWS V14.01,2013-12-12 19:11:00,
2013-12-12 14:16:00,54.5,11.9,30.02,ESE,120,0.0,2.7,18,0.00,,CLR,0.16,VWS V14.01,2013-12-12 19:16:00,
2013-12-12 14:21:00,55.0,12.3,30.02,SW,229,2.7,2.7,18,0.00,,CLR,0.16,VWS V14.01,2013-12-12 19:21:00,
2013-12-12 14:26:00,54.0,11.4,30.02,East,92,0.0,3.6,18,0.00,,CLR,0.16,VWS V14.01,2013-12-12 19:26:00,
2013-12-12 14:31:00,53.4,11.0,30.02,SSE,157,2.2,3.6,18,0.00,,CLR,0.16,VWS V14.01,2013-12-12 19:31:00,
2013-12-12 14:36:00,52.3,10.1,30.02,WSW,240,4.9,4.9,18,0.00,,CLR,0.16,VWS V14.01,2013-12-12 19:36:00,
2013-12-12 14:41:00,53.2,10.9,30.02,SW,234,2.7,3.6,18,0.00,,CLR,0.16,VWS V14.01,2013-12-12 19:41:00,
2013-12-12 14:46:00,52.9,10.6,30.02,SSW,195,5.4,5.4,18,0.00,,CLR,0.16,VWS V14.01,2013-12-12 19:46:00,
2013-12-12 14:51:00,52.2,10.0,30.02,East,90,0.0,3.1,18,0.00,,CLR,0.16,VWS V14.01,2013-12-12 19:51:00,
2013-12-12 14:56:00,52.2,10.0,30.02,ENE,60,0.0,3.6,18,0.00,,CLR,0.16,VWS V14.01,2013-12-12 19:56:00,
2013-12-12 15:01:00,51.3,10.4,30.02,WSW,245,0.0,4.5,19,0.00,,CLR,0.16,VWS V14.01,2013-12-12 20:01:00,
2013-12-12 15:07:00,51.3,10.4,30.02,WSW,237,6.3,6.7,19,0.00,,CLR,0.16,VWS V14.01,2013-12-12 20:07:00,
2013-12-12 15:12:00,50.7,10.0,30.02,NW,316,0.0,4.0,19,0.00,,CLR,0.16,VWS V14.01,2013-12-12 20:12:00,
2013-12-12 15:17:00,50.5,9.8,30.02,NNW,333,2.2,2.7,19,0.00,,CLR,0.16,VWS V14.01,2013-12-12 20:17:00,
2013-12-12 15:22:00,49.8,9.2,30.02,ESE,107,2.7,3.6,19,0.00,,CLR,0.16,VWS V14.01,2013-12-12 20:22:00,
2013-12-12 15:27:00,48.7,8.3,30.02,NW,312,0.0,3.1,19,0.00,,CLR,0.16,VWS V14.01,2013-12-12 20:27:00,
2013-12-12 15:32:00,48.0,7.7,30.02,NNE,32,0.0,2.2,19,0.00,,CLR,0.16,VWS V14.01,2013-12-12 20:32:00,
2013-12-12 15:37:00,48.2,7.9,30.02,West,277,0.0,0.0,19,0.00,,CLR,0.16,VWS V14.01,2013-12-12 20:37:00,
2013-12-12 15:42:00,47.8,7.6,30.02,WNW,283,0.0,0.0,19,0.00,,CLR,0.16,VWS V14.01,2013-12-12 20:42:00,
2013-12-12 15:47:00,46.9,6.8,30.02,South,177,3.1,3.6,19,0.00,,CLR,0.16,VWS V14.01,2013-12-12 20:47:00,
2013-12-12 15:52:00,46.4,6.4,30.02,SSW,211,0.0,2.7,19,0.00,,CLR,0.16,VWS V14.01,2013-12-12 20:52:00,
2013-12-12 15:58:00,45.9,7.1,30.02,SSW,201,0.0,0.0,20,0.00,,CLR,0.16,VWS V14.01,2013-12-12 20:58:00,
2013-12-12 16:03:00,45.1,6.5,30.02,NNW,330,0.0,0.0,20,0.00,,CLR,0.16,VWS V14.01,2013-12-12 21:03:00,
2013-12-12 16:08:00,44.6,6.0,30.02,SSE,162,0.0,0.0,20,0.00,,CLR,0.16,VWS V14.01,2013-12-12 21:08:00,
2013-12-12 16:13:00,44.2,5.7,30.02,WNW,284,0.0,0.0,20,0.00,,CLR,0.16,VWS V14.01,2013-12-12 21:13:00,
2013-12-12 16:18:00,43.9,5.4,30.02,SW,221,0.0,0.0,20,0.00,,CLR,0.16,VWS V14.01,2013-12-12 21:18:00,
2013-12-12 16:23:00,43.7,5.3,30.02,South,191,0.0,0.0,20,0.00,,CLR,0.16,VWS V14.01,2013-12-12 21:23:00,
2013-12-12 16:25:00,43.5,5.1,30.02,South,191,0.0,0.0,20,0.00,,CLR,0.16,VWS V14.01,2013-12-12 21:25:00,
2013-12-12 16:30:00,43.5,5.1,30.02,South,191,0.0,0.0,20,0.00,,CLR,0.16,VWS V14.01,2013-12-12 21:30:00,
2013-12-12 16:35:00,43.7,5.3,30.02,SSW,212,0.0,2.7,20,0.00,,CLR,0.16,VWS V14.01,2013-12-12 21:35:00,
2013-12-12 16:40:00,43.3,5.0,30.02,SW,236,2.2,2.2,20,0.00,,CLR,0.16,VWS V14.01,2013-12-12 21:40:00,
2013-12-12 16:45:00,43.0,4.7,30.02,SSW,212,0.0,0.0,20,0.00,,CLR,0.16,VWS V14.01,2013-12-12 21:45:00,
2013-12-12 16:50:00,42.3,5.1,30.02,SSW,212,0.0,0.0,21,0.00,,CLR,0.16,VWS V14.01,2013-12-12 21:50:00,
2013-12-12 16:55:00,41.9,4.8,30.02,SSW,212,0.0,0.0,21,0.00,,CLR,0.16,VWS V14.01,2013-12-12 21:55:00,
2013-12-12 17:00:00,41.5,4.5,30.02,SSW,212,0.0,0.0,21,0.00,,CLR,0.16,VWS V14.01,2013-12-12 22:00:00,
2013-12-12 17:05:00,41.0,4.1,30.02,SSW,212,2.7,2.7,21,0.00,,CLR,0.16,VWS V14.01,2013-12-12 22:05:00,
2013-12-12 17:10:00,40.3,3.5,30.02,SSW,212,0.0,0.0,21,0.00,,CLR,0.16,VWS V14.01,2013-12-12 22:10:00,
2013-12-12 17:16:00,39.2,2.6,30.02,SSW,212,0.0,0.0,21,0.00,,CLR,0.16,VWS V14.01,2013-12-12 22:16:00,
2013-12-12 17:21:00,38.5,2.0,30.02,SSW,212,0.0,0.0,21,0.00,,CLR,0.16,VWS V14.01,2013-12-12 22:21:00,
2013-12-12 17:26:00,37.8,1.4,30.02,SSW,212,0.0,0.0,21,0.00,,CLR,0.16,VWS V14.01,2013-12-12 22:26:00,
2013-12-12 17:31:00,37.0,1.7,30.02,SSW,212,0.0,0.0,22,0.00,,CLR,0.16,VWS V14.01,2013-12-12 22:31:00,
2013-12-12 17:36:00,36.5,1.3,30.02,SSW,212,0.0,0.0,22,0.00,,CLR,0.16,VWS V14.01,2013-12-12 22:36:00,
2013-12-12 17:41:00,36.1,1.0,30.02,SSW,212,0.0,0.0,22,0.00,,CLR,0.16,VWS V14.01,2013-12-12 22:41:00,
2013-12-12 17:46:00,35.8,0.7,30.02,SSW,212,0.0,0.0,22,0.00,,CLR,0.16,VWS V14.01,2013-12-12 22:46:00,
2013-12-12 17:51:00,35.4,0.4,30.02,SSW,212,0.0,0.0,22,0.00,,CLR,0.16,VWS V14.01,2013-12-12 22:51:00,
2013-12-12 17:57:00,35.1,0.1,30.02,SSW,212,0.0,0.0,22,0.00,,CLR,0.16,VWS V14.01,2013-12-12 22:57:00,
2013-12-12 18:02:00,35.1,0.1,30.02,SSW,212,0.0,0.0,22,0.00,,CLR,0.16,VWS V14.01,2013-12-12 23:02:00,
2013-12-12 18:07:00,34.9,-0.1,30.05,SSW,212,0.0,0.0,22,0.00,,CLR,0.16,VWS V14.01,2013-12-12 23:07:00,
2013-12-12 18:12:00,34.5,-0.4,30.05,SSW,212,0.0,0.0,22,0.00,,CLR,0.16,VWS V14.01,2013-12-12 23:12:00,
2013-12-12 18:17:00,34.0,-0.9,30.05,SSW,212,0.0,0.0,22,0.00,,CLR,0.16,VWS V14.01,2013-12-12 23:17:00,
2013-12-12 18:22:00,33.6,-0.2,30.02,SSW,212,0.0,0.0,23,0.00,,CLR,0.16,VWS V14.01,2013-12-12 23:22:00,
2013-12-12 18:27:00,33.1,-0.7,30.02,SSW,212,0.0,0.0,23,0.00,,CLR,0.16,VWS V14.01,2013-12-12 23:27:00,
2013-12-12 18:32:00,32.9,-0.8,30.02,SSW,212,0.0,0.0,23,0.00,,CLR,0.16,VWS V14.01,2013-12-12 23:32:00,
2013-12-12 18:37:00,32.5,-1.1,30.05,SSW,212,0.0,0.0,23,0.00,,CLR,0.16,VWS V14.01,2013-12-12 23:37:00,
2013-12-12 18:42:00,32.2,-1.4,30.05,SSW,212,0.0,0.0,23,0.00,,CLR,0.16,VWS V14.01,2013-12-12 23:42:00,
2013-12-12 18:47:00,32.2,-1.4,30.05,SSW,212,0.0,0.0,23,0.00,,CLR,0.16,VWS V14.01,2013-12-12 23:47:00,
2013-12-12 18:52:00,32.2,-1.4,30.05,SSW,212,0.0,0.0,23,0.00,,CLR,0.16,VWS V14.01,2013-12-12 23:52:00,
2013-12-12 18:58:00,32.0,-1.6,30.05,SSW,212,0.0,0.0,23,0.00,,CLR,0.16,VWS V14.01,2013-12-12 23:58:00,
2013-12-12 19:03:00,32.0,-1.6,30.05,SSW,212,0.0,0.0,23,0.00,,CLR,0.16,VWS V14.01,2013-12-13 00:03:00,
2013-12-12 19:08:00,31.8,-1.8,30.05,SSW,212,0.0,0.0,23,0.00,,CLR,0.16,VWS V14.01,2013-12-13 00:08:00,
2013-12-12 19:13:00,32.0,-1.6,30.05,SSW,212,0.0,0.0,23,0.00,,CLR,0.16,VWS V14.01,2013-12-13 00:13:00,
2013-12-12 19:18:00,31.8,-1.8,30.05,SSW,213,3.1,3.6,23,0.00,,CLR,0.16,VWS V14.01,2013-12-13 00:18:00,
2013-12-12 19:23:00,31.8,-1.8,30.05,NNE,21,4.0,4.0,23,0.00,,CLR,0.16,VWS V14.01,2013-12-13 00:23:00,
2013-12-12 19:28:00,31.6,-1.9,30.05,NNE,21,2.7,3.1,23,0.00,,CLR,0.16,VWS V14.01,2013-12-13 00:28:00,
2013-12-12 19:33:00,31.5,-2.0,30.05,NNE,21,0.0,0.0,23,0.00,,CLR,0.16,VWS V14.01,2013-12-13 00:33:00,
2013-12-12 19:39:00,31.5,-2.0,30.05,NNE,21,3.1,3.6,23,0.00,,CLR,0.16,VWS V14.01,2013-12-13 00:39:00,
2013-12-12 19:44:00,31.5,-2.0,30.05,NNE,21,0.0,0.0,23,0.00,,CLR,0.16,VWS V14.01,2013-12-13 00:44:00,
2013-12-12 19:49:00,31.8,-1.8,30.05,NNE,21,0.0,0.0,23,0.00,,CLR,0.16,VWS V14.01,2013-12-13 00:49:00,
2013-12-12 19:54:00,32.0,-1.6,30.05,NNE,21,0.0,0.0,23,0.00,,CLR,0.16,VWS V14.01,2013-12-13 00:54:00,
2013-12-12 19:59:00,32.0,-1.6,30.05,NNE,21,0.0,0.0,23,0.00,,CLR,0.16,VWS V14.01,2013-12-13 00:59:00,
2013-12-12 20:04:00,32.2,-1.4,30.05,NNE,21,0.0,0.0,23,0.00,,CLR,0.16,VWS V14.01,2013-12-13 01:04:00,
2013-12-12 20:09:00,31.5,-2.0,30.05,NNE,21,0.0,0.0,23,0.00,,CLR,0.16,VWS V14.01,2013-12-13 01:09:00,
2013-12-12 20:14:00,30.6,-2.8,30.05,NNE,21,0.0,0.0,23,0.00,,CLR,0.16,VWS V14.01,2013-12-13 01:14:00,
2013-12-12 20:19:00,30.4,-3.0,30.05,NNE,21,0.0,0.0,23,0.00,,CLR,0.16,VWS V14.01,2013-12-13 01:19:00,
2013-12-12 20:24:00,30.7,-2.7,30.05,NNE,21,0.0,0.0,23,0.00,,CLR,0.16,VWS V14.01,2013-12-13 01:24:00,
2013-12-12 20:29:00,30.9,-2.5,30.05,NNE,21,0.0,0.0,23,0.00,,CLR,0.16,VWS V14.01,2013-12-13 01:29:00,
2013-12-12 20:35:00,30.7,-2.7,30.05,NNE,21,0.0,0.0,23,0.00,,CLR,0.16,VWS V14.01,2013-12-13 01:35:00,
2013-12-12 20:40:00,30.4,-3.0,30.05,NNE,21,0.0,0.0,23,0.00,,CLR,0.16,VWS V14.01,2013-12-13 01:40:00,
2013-12-12 20:45:00,30.6,-2.8,30.05,NNE,21,0.0,0.0,23,0.00,,CLR,0.16,VWS V14.01,2013-12-13 01:45:00,
2013-12-12 20:50:00,30.6,-2.8,30.05,NNE,21,0.0,0.0,23,0.00,,CLR,0.16,VWS V14.01,2013-12-13 01:50:00,
2013-12-12 20:55:00,30.6,-2.8,30.05,NNE,21,0.0,0.0,23,0.00,,CLR,0.16,VWS V14.01,2013-12-13 01:55:00,
2013-12-12 21:00:00,30.4,-3.0,30.05,NNE,21,0.0,0.0,23,0.00,,CLR,0.16,VWS V14.01,2013-12-13 02:00:00,
2013-12-12 21:05:00,30.6,-2.8,30.05,NNE,21,0.0,0.0,23,0.00,,CLR,0.16,VWS V14.01,2013-12-13 02:05:00,
2013-12-12 21:10:00,30.6,-2.8,30.05,NNE,21,0.0,0.0,23,0.00,,CLR,0.16,VWS V14.01,2013-12-13 02:10:00,
2013-12-12 21:15:00,30.6,-2.8,30.05,NNE,21,0.0,0.0,23,0.00,,CLR,0.16,VWS V14.01,2013-12-13 02:15:00,
2013-12-12 21:20:00,30.7,-2.7,30.05,NNE,21,0.0,0.0,23,0.00,,CLR,0.16,VWS V14.01,2013-12-13 02:20:00,
2013-12-12 21:26:00,30.9,-2.5,30.05,NNE,21,0.0,0.0,23,0.00,,CLR,0.16,VWS V14.01,2013-12-13 02:26:00,
2013-12-12 21:31:00,30.9,-2.5,30.05,NNE,21,0.0,0.0,23,0.00,,CLR,0.16,VWS V14.01,2013-12-13 02:31:00,
2013-12-12 21:36:00,30.9,-2.5,30.05,NNE,21,0.0,0.0,23,0.00,,CLR,0.16,VWS V14.01,2013-12-13 02:36:00,
2013-12-12 21:41:00,30.9,-2.5,30.05,NNE,21,0.0,0.0,23,0.00,,CLR,0.16,VWS V14.01,2013-12-13 02:41:00,
2013-12-12 21:46:00,30.9,-2.5,30.05,NNE,21,0.0,0.0,23,0.00,,CLR,0.16,VWS V14.01,2013-12-13 02:46:00,
2013-12-12 21:51:00,31.1,-2.4,30.05,NNE,21,0.0,0.0,23,0.00,,CLR,0.16,VWS V14.01,2013-12-13 02:51:00,
2013-12-12 21:56:00,30.9,-2.5,30.05,NNE,21,0.0,0.0,23,0.00,,CLR,0.16,VWS V14.01,2013-12-13 02:56:00,
2013-12-12 22:01:00,30.9,-2.5,30.05,NNE,21,0.0,0.0,23,0.00,,CLR,0.16,VWS V14.01,2013-12-13 03:01:00,
2013-12-12 22:06:00,30.9,-2.5,30.05,NNE,21,0.0,0.0,23,0.00,,CLR,0.16,VWS V14.01,2013-12-13 03:06:00,
2013-12-12 22:11:00,30.7,-2.7,30.05,NNE,21,0.0,0.0,23,0.00,,CLR,0.16,VWS V14.01,2013-12-13 03:11:00,
2013-12-12 22:16:00,30.9,-2.5,30.05,NNE,21,0.0,0.0,23,0.00,,CLR,0.16,VWS V14.01,2013-12-13 03:16:00,
2013-12-12 22:21:00,30.9,-2.5,30.02,NNE,21,0.0,0.0,23,0.00,,CLR,0.16,VWS V14.01,2013-12-13 03:21:00,
2013-12-12 22:27:00,30.9,-2.5,30.02,NNE,21,0.0,0.0,23,0.00,,CLR,0.16,VWS V14.01,2013-12-13 03:27:00,
2013-12-12 22:32:00,30.9,-2.5,30.02,NNE,21,0.0,0.0,23,0.00,,CLR,0.16,VWS V14.01,2013-12-13 03:32:00,
2013-12-12 22:37:00,30.7,-2.7,30.02,ENE,65,0.0,0.0,23,0.00,,CLR,0.16,VWS V14.01,2013-12-13 03:37:00,
2013-12-12 22:42:00,30.6,-2.8,30.02,ENE,65,0.0,0.0,23,0.00,,CLR,0.16,VWS V14.01,2013-12-13 03:42:00,
2013-12-12 22:47:00,30.2,-3.1,30.02,ENE,65,0.0,0.0,23,0.00,,CLR,0.16,VWS V14.01,2013-12-13 03:47:00,
2013-12-12 22:52:00,30.2,-3.1,30.02,SE,135,0.0,0.0,23,0.00,,CLR,0.16,VWS V14.01,2013-12-13 03:52:00,
2013-12-12 22:57:00,30.0,-3.3,30.02,SE,135,0.0,0.0,23,0.00,,CLR,0.16,VWS V14.01,2013-12-13 03:57:00,
2013-12-12 23:02:00,29.8,-3.4,30.02,SE,135,0.0,0.0,23,0.00,,CLR,0.16,VWS V14.01,2013-12-13 04:02:00,
2013-12-12 23:07:00,29.8,-3.4,30.05,SE,135,0.0,0.0,23,0.00,,CLR,0.16,VWS V14.01,2013-12-13 04:07:00,
2013-12-12 23:12:00,29.7,-3.6,30.05,SE,135,0.0,0.0,23,0.00,,CLR,0.16,VWS V14.01,2013-12-13 04:12:00,
2013-12-12 23:17:00,29.5,-3.7,30.05,SE,135,0.0,0.0,23,0.00,,CLR,0.16,VWS V14.01,2013-12-13 04:17:00,
2013-12-12 23:22:00,29.5,-3.7,30.05,SE,135,0.0,0.0,23,0.00,,CLR,0.16,VWS V14.01,2013-12-13 04:22:00,
2013-12-12 23:28:00,29.7,-3.6,30.05,SE,135,0.0,0.0,23,0.00,,CLR,0.16,VWS V14.01,2013-12-13 04:28:00,
2013-12-12 23:33:00,29.8,-3.4,30.05,SE,135,0.0,0.0,23,0.00,,CLR,0.16,VWS V14.01,2013-12-13 04:33:00,
2013-12-12 23:38:00,29.8,-3.4,30.05,SE,135,0.0,0.0,23,0.00,,CLR,0.16,VWS V14.01,2013-12-13 04:38:00,
2013-12-12 23:43:00,29.7,-3.6,30.05,SE,135,0.0,0.0,23,0.00,,CLR,0.16,VWS V14.01,2013-12-13 04:43:00,
2013-12-12 23:48:00,30.0,-3.3,30.05,SE,135,0.0,0.0,23,0.00,,CLR,0.16,VWS V14.01,2013-12-13 04:48:00,
2013-12-12 23:53:00,30.2,-3.1,30.05,SE,135,0.0,0.0,23,0.00,,CLR,0.16,VWS V14.01,2013-12-13 04:53:00,
2013-12-12 23:58:00,30.2,-3.1,30.05,SE,135,0.0,0.0,23,0.00,,CLR,0.16,VWS V14.01,2013-12-13 04:58:00,